STARLINK-3194 (49758 NORAD) Tracking and Keplerian Element Data

This shows tracking and keplerian element data for the satellite.

Feedback or suggestion? Click here.




ElementValue
Catalog49758
NameSTARLINK-3194
Epoch Orbit2712
Epoch Day140.91667824
Epoch Year2022
RAAN253.5732
Inclination53.2148
Eccentricity0.0001868
Argument of Perigee50.0176
Mean Anonmoly13.0395
Mean Motion15.08844156
Decay Rate-6.035E-05
L11 49758U 21115AL 22140.91667824 -.00006035 00000+0 -36134-3 0 9990
L22 49758 53.2148 253.5732 0001868 50.0176 13.0395 15.08844156 27122

Live tracking and technical data element details for STARLINK-3194 (NORAD 49758). STARLINK-3194 can be tracked NOW for your location showing map with azimuth and elevation plus other details from your city location.

Track the satellite on the map from your city or location and see movement details for azimuth, elevation, latitude, longitude, range, height, and movement on the map or in text.







IsCatalogInMostPopularTable: catalog: 49758, numindb: 23
Update: records affected: 1



GetName: 49758 STARLINK-3194

Hit Count: updated at: Mon, 23 May 2022 21:00:45 GMT